Location: Chervonnoye
(48.6000°N, 34.4000°E)
Time: 17:29:36
(UTC+00:00)

UKube-1 - Pass Details

Date: 05 December 2021
Orbit: 610 x 618 km, 98.4° (Epoch: 20 January)

Event Time Altitude Azimuth Distance (km) Brightness Sun altitude
Rises 04:04:31 0° 110° (ESE) 2,889 ? -11.6°
Reaches altitude 10° 04:07:50 10° 82° (E) 1,988 ? -11.1°
Maximum altitude 04:09:44 13° 56° (NE) 1,812 ? -10.8°
Drops below altitude 10° 04:11:37 10° 30° (NNE) 1,993 ? -10.6°
Sets 04:14:57 0° 2° (N) 2,903 ? -10.0°
